Location: Pinhead Observatory
(34.4473°N, 118.1985°W)
Time: 19:13:50
(UTC-07:00)

CZ-4C R/B - Visible Passes

Search period start: 23 March 2017 00:00
Search period end: 02 April 2017 00:00
Orbit: 722 x 1281 km, 63.4° (Epoch: 22 March)

Date Brightness Start Highest point End Pass type
(mag) Time Alt. Az. Time Alt. Az. Time Alt. Az.
24 Mar 5.4 05:37:34 10° NNE 05:40:34 13° NE 05:43:41 10° ENE visible
25 Mar 5.1 06:09:24 10° N 06:15:05 24° NE 06:21:10 10° E visible
26 Mar 5.6 04:57:19 10° NNE 04:58:50 11° NE 05:00:24 10° NE visible
27 Mar 5.2 05:28:17 10° N 05:33:28 21° NE 05:38:59 10° E visible
28 Mar 4.4 06:00:56 10° NNW 06:07:38 39° NE 06:14:55 10° ESE visible
28 Mar4.621:33:39NE21:33:39NE21:20:19SSWvisible
28 Mar 5.1 23:18:41 11° N 23:18:41 11° N 23:18:58 10° N visible
29 Mar 5.3 04:47:14 10° N 04:51:49 18° NE 04:56:40 10° E visible
29 Mar 3.2 20:08:06 10° SSE 20:11:38 19° ESE 20:12:09 19° E visible
29 Mar 3.3 21:54:32 10° SW 22:02:38 24° N 22:05:05 10° NNE visible
30 Mar 4.6 05:19:41 10° NNW 05:26:06 33° NE 05:33:02 10° ESE visible
30 Mar 2.1 20:39:42 10° S 20:44:38 52° ESE 20:50:06 10° NE visible
30 Mar 4.4 22:29:31 10° W 22:33:31 21° NW 22:37:54 10° N visible
31 Mar 5.4 04:06:18 10° N 04:10:08 15° NE 04:14:10 10° ENE visible
31 Mar 3.5 05:52:44 10° NNW 06:00:00 64° ENE 06:07:55 10° SE visible
31 Mar 2.6 21:12:58 10° SW 21:18:03 59° NW 21:23:45 10° NNE visible
31 Mar 5.2 23:07:24 10° NW 23:08:01 10° NNW 23:08:38 10° NNW visible
01 Apr 4.8 04:38:29 10° N 04:44:32 28° NE 04:51:03 10° ESE visible
01 Apr 2.4 19:58:35 10° S 20:03:20 40° ESE 20:08:31 10° NE visible
01 Apr 4.2 21:47:35 10° WSW 21:51:56 25° NW 21:56:45 10° N visible
